FW5442 Weather Reports


time (UTC)temp
F
wind
direction
speed
knots
gust
knots
rain 1hr
in
rain 24hr
in
rain mn
in
humidity
%
barometer
mb
20260509190053 80 0 0.0 5.2 0.00 0.00 0.00 57 1010.3
20260509185553 80 0 0.0 5.2 0.00 0.00 0.00 58 1010.3
20260509185053 79 0 0.0 7.8 0.00 0.00 0.00 59 1010.4
20260509184558 79 0 0.0 7.8 0.00 0.00 0.00 59 1010.3
20260509184052 78 0 1.7 7.8 0.00 0.00 0.00 60 1010.5
20260509183555 79 135 0.9 8.7 0.00 0.00 0.00 59 1010.6
20260509183054 79 0 0.0 8.7 0.00 0.00 0.00 59 1010.7
20260509182553 80 119 0.0 0.0 0.00 0.00 0.00 58 1010.8
20260509182054 79 0 0.0 0.0 0.00 0.00 0.00 60 1010.7
20260509181600 79 0 0.0 0.9 0.00 0.00 0.00 59 1010.7
20260509181053 79 0 0.0 7.8 0.00 0.00 0.00 60 1010.8
20260509180554 78 0 0.0 7.8 0.00 0.00 0.00 61 1010.8
20260509180104 78 0 1.7 7.8 0.00 0.00 0.00 61 1010.8
20260509175553 80 140 1.7 7.0 0.00 0.00 0.00 59 1011.0
20260509175053 79 0 0.9 6.1 0.00 0.00 0.00 61 1011.0
20260509174556 78 0 1.7 7.8 0.00 0.00 0.00 62 1010.9
20260509174057 77 141 4.3 7.8 0.00 0.00 0.00 63 1011.1
20260509173552 77 121 3.5 7.8 0.00 0.00 0.00 64 1011.2
20260509173101 77 115 1.7 4.3 0.00 0.00 0.00 64 1011.2
20260509172553 77 232 0.0 3.5 0.00 0.00 0.00 66 1011.1
20260509172053 77 240 0.0 6.1 0.00 0.00 0.00 64 1011.2
20260509171555 78 223 0.0 6.1 0.00 0.00 0.00 64 1011.3
20260509171052 77 0 1.7 6.1 0.00 0.00 0.00 66 1011.5
20260509170552 77 128 0.0 4.3 0.00 0.00 0.00 65 1011.4
20260509170059 76 44 0.0 4.3 0.00 0.00 0.00 67 1011.4
20260509165552 76 310 0.0 3.5 0.00 0.00 0.00 67 1011.4
20260509165052 75 0 0.0 3.5 0.00 0.00 0.00 68 1011.4
20260509164607 75 269 0.0 4.3 0.00 0.00 0.00 69 1011.5
20260509164053 74 0 0.0 6.1 0.00 0.00 0.00 70 1011.4
20260509163555 74 300 1.7 6.1 0.00 0.00 0.00 70 1011.4
20260509163105 74 41 3.5 6.1 0.00 0.00 0.00 71 1011.3
20260509162552 75 20 2.6 5.2 0.00 0.00 0.00 72 1011.3
20260509162054 75 0 0.0 4.3 0.00 0.00 0.00 73 1011.4
20260509161602 74 29 0.9 5.2 0.00 0.00 0.00 74 1011.4
20260509161052 73 18 2.6 6.1 0.00 0.00 0.00 76 1011.4
20260509160553 73 7 2.6 6.1 0.00 0.00 0.00 76 1011.2
20260509160100 73 286 4.3 6.1 0.00 0.00 0.00 74 1011.3
20260509155554 73 0 0.9 5.2 0.00 0.00 0.00 76 1011.4
20260509155052 74 0 0.0 0.9 0.00 0.00 0.00 75 1011.1
20260509154602 73 26 0.0 2.6 0.00 0.00 0.00 77 1011.1
20260509154052 71 0 0.0 6.1 0.00 0.00 0.00 80 1011.2
20260509153552 71 307 3.5 6.1 0.00 0.00 0.00 79 1011.2
20260509153105 72 328 0.9 3.5 0.00 0.00 0.00 80 1011.1
20260509152552 71 0 0.9 4.3 0.00 0.00 0.00 81 1011.2
20260509152052 71 0 0.9 5.2 0.00 0.00 0.00 82 1011.0
20260509151609 70 0 0.0 6.1 0.00 0.00 0.00 82 1010.9
20260509151052 69 0 2.6 6.1 0.00 0.00 0.00 82 1011.0
20260509150553 69 0 0.9 7.0 0.00 0.00 0.00 82 1010.9
20260509150056 69 360 3.5 7.0 0.00 0.00 0.00 81 1010.9
20260509145553 68 319 5.2 7.0 0.00 0.00 0.00 81 1010.8
20260509145053 68 328 1.7 6.1 0.00 0.00 0.00 80 1010.8
20260509144605 68 257 3.5 6.1 0.00 0.00 0.00 80 1010.9
20260509144052 68 0 0.0 8.7 0.00 0.00 0.00 75 1010.9
20260509143555 67 278 3.5 8.7 0.00 0.00 0.00 76 1011.0
20260509143054 67 0 1.7 7.0 0.00 0.00 0.00 76 1011.0
20260509142552 67 319 2.6 6.1 0.00 0.00 0.00 73 1011.2
20260509142052 67 337 3.5 6.1 0.00 0.00 0.00 73 1011.2
20260509141552 67 0 2.6 6.1 0.00 0.00 0.00 69 1011.2
20260509141052 66 281 3.5 6.1 0.00 0.00 0.00 65 1011.2
20260509140551 66 300 1.7 6.1 0.00 0.00 0.00 60 1011.2
20260509140059 66 298 2.6 6.1 0.00 0.00 0.00 58 1011.0
20260509135553 66 292 3.5 9.6 0.00 0.00 0.00 58 1010.9
20260509135053 66 0 4.3 9.6 0.00 0.00 0.00 52 1010.8
20260509134556 65 300 3.5 7.0 0.00 0.00 0.00 51 1010.9
20260509134052 65 260 2.6 7.0 0.00 0.00 0.00 43 1010.9
20260509133552 65 311 4.3 6.1 0.00 0.00 0.00 42 1011.0
20260509133059 65 307 3.5 7.0 0.00 0.00 0.00 39 1011.0
20260509132554 65 325 4.3 7.0 0.00 0.00 0.00 37 1011.0
20260509132053 65 325 3.5 5.2 0.00 0.00 0.00 32 1011.1
20260509131552 65 262 3.5 5.2 0.00 0.00 0.00 29 1011.1
20260509131052 65 281 3.5 5.2 0.00 0.00 0.00 28 1011.1
20260509130552 65 269 0.0 3.5 0.00 0.00 0.00 28 1011.1
20260509130101 64 0 0.0 3.5 0.00 0.00 0.00 28 1010.9
20260509125553 64 0 0.9 3.5 0.00 0.00 0.00 28 1011.1
20260509125052 64 0 0.0 3.5 0.00 0.00 0.00 28 1011.1
20260509124553 64 268 0.9 2.6 0.00 0.00 0.00 28 1011.1
20260509124053 64 0 0.0 0.0 0.00 0.00 0.00 28 1011.0
20260509123553 64 0 0.0 0.0 0.00 0.00 0.00 28 1010.9
20260509123056 64 0 0.0 0.0 0.00 0.00 0.00 28 1011.0
20260509122553 64 0 0.0 0.0 0.00 0.00 0.00 28 1011.0
20260509122052 64 0 0.0 0.0 0.00 0.00 0.00 29 1011.2
20260509121553 64 0 0.0 0.0 0.00 0.00 0.00 29 1011.1
20260509121053 64 0 0.0 0.0 0.00 0.00 0.00 29 1011.0
20260509120553 63 0 0.0 0.0 0.00 0.00 0.00 30 1010.8
20260509120059 63 0 0.0 0.0 0.00 0.00 0.00 30 1010.7
20260509115553 63 0 0.0 0.0 0.00 0.00 0.00 30 1010.7
20260509115050 63 0 0.0 0.0 0.00 0.00 0.00 30 1010.6
20260509114554 63 0 0.0 0.0 0.00 0.00 0.00 31 1010.6
20260509114052 63 0 0.0 0.0 0.00 0.00 0.00 31 1010.6
20260509113551 63 0 0.0 0.0 0.00 0.00 0.00 32 1010.6
20260509113052 63 0 0.0 0.0 0.00 0.00 0.00 32 1010.7
20260509112553 63 0 0.0 0.0 0.00 0.00 0.00 32 1010.5
20260509112053 63 0 0.0 0.0 0.00 0.00 0.00 33 1010.4
20260509111551 63 0 0.0 0.0 0.00 0.00 0.00 33 1010.5
20260509111052 62 0 0.0 2.6 0.00 0.00 0.00 34 1010.2
20260509110553 62 0 0.0 2.6 0.00 0.00 0.00 34 1010.2
20260509110053 62 157 1.7 2.6 0.00 0.00 0.00 35 1010.1
20260509105553 62 150 0.0 1.7 0.00 0.00 0.00 36 1009.9
20260509105053 62 156 0.0 0.9 0.00 0.00 0.00 37 1009.7
20260509104553 62 0 0.0 0.0 0.00 0.00 0.00 38 1009.3
20260509104054 62 0 0.0 3.5 0.00 0.00 0.00 39 1009.3
20260509103552 61 0 0.9 3.5 0.00 0.00 0.00 39 1009.1
20260509103053 61 222 1.7 2.6 0.00 0.00 0.00 40 1009.2
20260509102552 61 200 0.0 2.6 0.00 0.00 0.00 41 1009.0
20260509102054 61 0 0.0 0.0 0.00 0.00 0.00 41 1009.1
20260509101553 61 0 0.0 2.6 0.00 0.00 0.00 44 1009.3
20260509101052 60 0 0.0 2.6 0.00 0.00 0.00 45 1009.4
20260509100553 60 248 0.9 2.6 0.00 0.00 0.00 46 1009.6
20260509100051 60 0 0.0 2.6 0.00 0.00 0.00 47 1009.6
20260509095553 60 0 0.0 2.6 0.00 0.00 0.00 52 1009.3
20260509095053 60 214 2.6 2.6 0.00 0.00 0.00 52 1009.3
20260509094553 61 213 0.0 2.6 0.00 0.00 0.00 52 1009.2
20260509094053 61 0 1.7 2.6 0.00 0.00 0.00 52 1009.0
20260509093556 61 202 1.7 2.6 0.00 0.00 0.00 54 1008.8
20260509093055 61 198 1.7 2.6 0.00 0.00 0.00 52 1008.7
20260509092552 61 181 0.9 2.6 0.00 0.00 0.00 53 1008.6
20260509092056 61 0 0.0 0.0 0.00 0.00 0.00 54 1008.5
20260509091606 61 0 0.0 0.0 0.00 0.00 0.00 54 1008.5
20260509091055 61 0 0.0 2.6 0.00 0.00 0.00 54 1008.6
20260509090556 61 0 0.9 2.6 0.00 0.00 0.00 56 1008.7
20260509090056 61 155 0.0 2.6 0.00 0.00 0.00 57 1008.8
20260509085556 61 0 0.0 4.3 0.00 0.00 0.00 58 1008.9
20260509085057 61 0 2.6 4.3 0.00 0.00 0.00 57 1008.8
20260509084553 61 188 1.7 3.5 0.00 0.00 0.00 57 1008.8
20260509084056 61 172 1.7 3.5 0.00 0.00 0.00 60 1008.8
20260509083556 61 161 2.6 3.5 0.00 0.00 0.00 61 1008.9
20260509083054 61 175 2.6 3.5 0.00 0.00 0.00 62 1009.0
20260509082555 61 169 1.7 5.2 0.00 0.00 0.00 63 1008.9
20260509082058 61 160 2.6 6.1 0.00 0.00 0.00 63 1008.7
20260509081555 60 181 4.3 6.1 0.00 0.00 0.00 63 1008.6
20260509081053 60 154 3.5 6.1 0.00 0.00 0.00 65 1008.8
20260509080555 60 169 4.3 6.1 0.00 0.00 0.00 66 1008.9
20260509080059 60 169 5.2 6.1 0.00 0.00 0.00 65 1008.9
20260509075555 60 174 4.3 5.2 0.00 0.00 0.00 66 1008.9
20260509075052 60 168 3.5 5.2 0.00 0.00 0.00 66 1008.8
20260509074556 60 189 3.5 6.1 0.00 0.00 0.00 67 1008.8
20260509074052 60 196 4.3 7.0 0.00 0.00 0.00 68 1008.8
20260509073556 60 169 5.2 7.0 0.00 0.00 0.00 68 1009.1
20260509073053 60 159 2.6 6.1 0.00 0.00 0.00 70 1009.2
20260509072555 60 174 0.0 6.1 0.00 0.00 0.00 71 1009.3
20260509072056 60 0 0.0 0.0 0.00 0.00 0.00 71 1009.3
20260509071559 60 0 0.0 0.0 0.00 0.00 0.00 72 1009.5
20260509071053 60 0 0.0 0.0 0.00 0.00 0.00 72 1009.5
20260509070553 60 0 0.0 0.0 0.00 0.00 0.00 73 1009.5
20260509070059 60 0 0.0 0.0 0.00 0.00 0.00 73 1009.7
20260509065555 60 0 0.0 0.0 0.00 0.00 0.00 72 1009.9
20260509065056 60 0 0.0 0.0 0.00 0.00 0.00 71 1010.0
20260509064555 60 0 0.0 0.0 0.00 0.00 0.00 71 1009.9
20260509064055 60 0 0.0 0.0 0.00 0.00 0.00 72 1009.9
20260509063556 60 0 0.0 0.0 0.00 0.00 0.00 74 1009.8
20260509063056 60 0 0.0 0.0 0.00 0.00 0.00 74 1010.0
20260509062557 60 0 0.0 5.2 0.00 0.00 0.00 74 1010.1
20260509062056 59 0 0.0 5.2 0.00 0.00 0.00 74 1010.4
20260509061613 59 178 1.7 5.2 0.00 0.00 0.00 78 1010.7
20260509061056 60 0 0.0 0.0 0.00 0.00 0.00 80 1010.7
20260509060553 60 0 0.0 0.0 0.00 0.00 0.00 81 1010.8
20260509060118 60 0 0.0 0.0 0.00 0.00 0.00 81 1010.7
20260509055556 60 0 0.0 0.0 0.00 0.00 0.00 81 1010.6
20260509055056 60 0 0.0 0.0 0.00 0.00 0.00 82 1010.7
20260509054602 61 0 0.0 0.0 0.00 0.00 0.00 82 1010.7
20260509054056 61 0 0.0 0.0 0.00 0.00 0.00 82 1010.6
20260509053557 61 0 0.0 0.0 0.00 0.00 0.00 82 1010.8
20260509053056 61 0 0.0 0.0 0.00 0.00 0.00 83 1010.9
20260509052557 61 0 0.0 0.0 0.00 0.00 0.00 83 1010.9
20260509052057 61 0 0.0 0.0 0.00 0.00 0.00 82 1011.0
20260509051559 61 0 0.0 0.0 0.00 0.00 0.00 83 1011.0
20260509051056 61 0 0.0 0.0 0.00 0.00 0.00 82 1011.0
20260509050556 61 0 0.0 0.0 0.00 0.00 0.00 82 1011.3
20260509050127 61 0 0.0 0.0 0.00 0.00 0.00 82 1011.4
20260509045557 61 0 0.0 0.0 0.00 0.00 0.00 82 1011.4
20260509045057 61 0 0.0 0.0 0.00 0.00 0.00 82 1011.2
20260509044601 62 0 0.0 0.0 0.00 0.00 0.00 83 1011.1
20260509044056 62 0 0.0 0.0 0.00 0.00 0.00 83 1010.9
20260509043556 62 0 0.0 0.0 0.00 0.00 0.00 83 1010.6
20260509043058 62 0 0.0 0.0 0.00 0.00 0.00 83 1010.7
20260509042556 62 0 0.0 0.0 0.00 0.00 0.00 83 1010.8
20260509042056 62 0 0.0 0.0 0.00 0.00 0.00 83 1010.8
20260509041555 62 0 0.0 0.0 0.00 0.00 0.00 82 1011.1
20260509041056 62 0 0.0 0.0 0.00 0.00 0.00 82 1011.2
20260509040555 62 0 0.0 0.0 0.00 0.00 0.00 82 1011.5
20260509040057 62 0 0.0 0.0 0.00 0.00 0.00 82 1011.4
20260509035558 62 0 0.0 0.0 0.00 0.00 0.00 82 1011.4
20260509035052 63 0 0.0 0.0 0.00 0.00 0.00 82 1011.3
20260509034553 63 0 0.0 0.0 0.00 0.00 0.00 82 1011.2
20260509034053 63 0 0.0 0.0 0.00 0.00 0.00 81 1010.8
20260509033556 63 0 0.0 0.0 0.00 0.00 0.00 81 1010.6
20260509033056 63 0 0.0 0.0 0.00 0.00 0.00 82 1010.6
20260509032556 62 0 0.0 0.0 0.00 0.00 0.00 82 1010.6
20260509032058 63 0 0.0 0.0 0.00 0.00 0.00 82 1010.5
20260509031557 63 0 0.0 0.0 0.00 0.00 0.00 82 1010.5
20260509031056 63 0 0.0 0.0 0.00 0.00 0.00 81 1010.4
20260509030556 63 0 0.0 0.0 0.00 0.00 0.00 81 1010.6
20260509030054 63 0 0.0 0.0 0.00 0.00 0.00 81 1010.6
20260509025553 63 0 0.0 0.0 0.00 0.00 0.00 81 1010.8
20260509025055 64 0 0.0 0.0 0.00 0.00 0.00 80 1010.8
20260509024553 64 0 0.0 0.0 0.00 0.00 0.00 80 1010.8
20260509024052 63 0 0.0 0.0 0.00 0.00 0.00 80 1010.6
20260509023559 64 0 0.0 0.0 0.00 0.00 0.00 80 1010.3
20260509023102 64 0 0.0 0.0 0.00 0.00 0.00 79 1010.3
20260509022556 64 0 0.0 0.0 0.00 0.00 0.00 78 1010.3
20260509022056 64 0 0.0 0.0 0.00 0.00 0.00 78 1010.3
20260509021556 65 0 0.0 0.0 0.00 0.00 0.00 77 1010.4
20260509021057 65 0 0.0 0.0 0.00 0.00 0.00 77 1010.4
20260509020555 65 0 0.0 0.0 0.00 0.00 0.00 77 1010.5
20260509020058 65 0 0.0 0.0 0.00 0.00 0.00 76 1010.3
20260509015556 66 0 0.0 0.0 0.00 0.00 0.00 75 1010.4
20260509015056 66 0 0.0 0.0 0.00 0.00 0.00 75 1010.4
20260509014554 66 0 0.0 5.2 0.00 0.00 0.00 75 1010.3
20260509014056 66 0 0.0 6.1 0.00 0.00 0.00 74 1010.2
20260509013552 66 0 0.9 6.1 0.00 0.00 0.00 74 1010.2
20260509013100 67 0 0.0 5.2 0.00 0.00 0.00 73 1010.3
20260509012556 67 0 0.0 7.0 0.00 0.00 0.00 73 1010.3
20260509012057 67 0 0.0 7.0 0.00 0.00 0.00 72 1010.2
20260509011556 67 0 0.0 7.0 0.00 0.00 0.00 71 1010.2
20260509011056 68 0 0.0 8.7 0.00 0.00 0.00 71 1010.2
20260509010556 68 171 2.6 8.7 0.00 0.00 0.00 70 1010.3
20260509010057 68 0 0.0 10.4 0.00 0.00 0.00 70 1010.1
20260509005556 68 148 3.5 10.4 0.00 0.00 0.00 69 1010.0
20260509005055 68 150 6.1 10.4 0.00 0.00 0.00 69 1010.0
20260509004555 69 0 2.6 9.6 0.00 0.00 0.00 69 1010.2
20260509004055 69 153 2.6 11.3 0.00 0.00 0.00 69 1010.1
20260509003553 69 166 4.3 11.3 0.00 0.00 0.00 68 1010.1
20260509003103 69 162 3.5 10.4 0.00 0.00 0.00 68 1010.0
20260509002552 70 147 5.2 10.4 0.00 0.00 0.00 67 1010.0
20260509002058 70 144 5.2 10.4 0.00 0.00 0.00 67 1010.1
20260509001553 70 150 5.2 12.2 0.00 0.00 0.00 66 1010.1
20260509001052 71 167 4.3 12.2 0.00 0.00 0.00 65 1010.0
20260509000559 70 143 3.5 9.6 0.00 0.00 0.00 65 1010.1
20260509000104 71 163 5.2 10.4 0.00 0.00 0.00 64 1010.1
20260508235555 71 162 3.5 11.3 0.00 0.00 0.00 63 1010.3
20260508235055 71 154 2.6 12.2 0.00 0.00 0.00 63 1010.2
20260508234558 72 136 4.3 12.2 0.00 0.00 0.00 63 1010.3
20260508234053 72 152 7.8 12.2 0.00 0.00 0.00 63 1010.4
20260508233556 72 155 6.1 14.8 0.00 0.00 0.00 62 1010.3
20260508233054 72 167 7.0 14.8 0.00 0.00 0.00 62 1010.2
20260508232555 72 174 4.3 13.0 0.00 0.00 0.00 62 1010.4
20260508232055 73 189 6.1 13.0 0.00 0.00 0.00 61 1010.3
20260508231558 73 166 8.7 14.8 0.00 0.00 0.00 60 1010.2
20260508231056 73 162 7.0 14.8 0.00 0.00 0.00 61 1010.4
20260508230557 72 163 8.7 13.0 0.00 0.00 0.00 60 1010.3
20260508230105 73 160 6.1 13.0 0.00 0.00 0.00 59 1010.4
20260508225556 73 245 6.1 14.8 0.00 0.00 0.00 59 1010.4
20260508225052 73 167 9.6 14.8 0.00 0.00 0.00 58 1010.5
20260508224557 73 158 4.3 13.0 0.00 0.00 0.00 57 1010.4
20260508224052 73 155 7.8 13.0 0.00 0.00 0.00 57 1010.4
20260508223552 73 113 7.8 13.0 0.00 0.00 0.00 56 1010.4
20260508223055 73 156 7.0 13.9 0.00 0.00 0.00 55 1010.3
20260508222554 74 166 6.1 13.9 0.00 0.00 0.00 55 1010.4
20260508222051 73 138 7.0 15.6 0.00 0.00 0.00 55 1010.4
20260508221559 74 143 7.0 15.6 0.00 0.00 0.00 56 1010.4
20260508221052 74 198 6.1 15.6 0.00 0.00 0.00 54 1010.6
20260508220555 74 149 7.8 13.9 0.00 0.00 0.00 53 1010.5
20260508220055 74 160 8.7 13.9 0.00 0.00 0.00 52 1010.4
20260508215552 74 176 6.1 13.9 0.00 0.00 0.00 53 1010.4
20260508215056 74 150 5.2 14.8 0.00 0.00 0.00 53 1010.4
20260508214611 74 139 4.3 14.8 0.00 0.00 0.00 54 1010.5
20260508214055 73 0 4.3 15.6 0.00 0.00 0.00 53 1010.5
20260508213555 73 169 6.1 15.6 0.00 0.00 0.00 52 1010.5
20260508213058 73 189 3.5 16.5 0.00 0.00 0.00 52 1010.7
20260508212554 73 172 9.6 16.5 0.00 0.00 0.00 51 1010.9
20260508212054 73 150 10.4 16.5 0.00 0.00 0.00 53 1010.8
20260508211558 74 142 7.8 15.6 0.00 0.00 0.00 52 1010.8
20260508211056 74 166 7.8 16.5 0.00 0.00 0.00 53 1011.0
20260508210556 74 139 5.2 16.5 0.00 0.00 0.00 52 1011.0
20260508210054 74 157 13.0 16.5 0.00 0.00 0.00 52 1011.2
20260508205555 74 163 10.4 15.6 0.00 0.00 0.00 52 1011.3
20260508205055 74 144 9.6 15.6 0.00 0.00 0.00 52 1011.1
20260508204602 74 130 11.3 17.4 0.00 0.00 0.00 50 1011.1
20260508204056 74 179 7.8 17.4 0.00 0.00 0.00 50 1011.3
20260508203552 74 144 9.6 18.2 0.00 0.00 0.00 51 1011.3
20260508203053 74 172 7.8 18.2 0.00 0.00 0.00 50 1011.5
20260508202555 73 124 12.2 18.2 0.00 0.00 0.00 51 1011.5
20260508202052 74 137 9.6 15.6 0.00 0.00 0.00 51 1011.5
20260508201607 74 129 7.0 17.4 0.00 0.00 0.00 50 1011.6
20260508201052 74 165 5.2 17.4 0.00 0.00 0.00 50 1011.7
20260508200552 74 174 7.8 16.5 0.00 0.00 0.00 51 1011.7
20260508200058 73 141 7.8 14.8 0.00 0.00 0.00 51 1011.8
20260508195551 74 124 8.7 17.4 0.00 0.00 0.00 49 1011.8
20260508195052 74 188 10.4 17.4 0.00 0.00 0.00 48 1011.8
20260508194621 73 174 10.4 16.5 0.00 0.00 0.00 48 1011.6
20260508194051 73 173 5.2 13.9 0.00 0.00 0.00 50 1011.7
20260508193551 73 160 5.2 13.9 0.00 0.00 0.00 52 1011.8
20260508193101 73 143 2.6 13.0 0.00 0.00 0.00 50 1011.9
20260508192555 73 165 3.5 13.9 0.00 0.00 0.00 50 1012.2
20260508192057 73 122 8.7 13.9 0.00 0.00 0.00 49 1012.2
20260508191600 73 0 5.2 13.9 0.00 0.00 0.00 49 1012.2
20260508191055 73 180 6.1 13.9 0.00 0.00 0.00 50 1012.0
20260508190557 73 157 3.5 13.0 0.00 0.00 0.00 51 1012.1